Terminal Aerodrome Forecast
Issued by NWS

Home | Current Version | Previous Version | Text Only | Print | Product List | Glossary On
Versions: 1 2 3 4 5 6 7 8 9 10 11 12 13 14 15 16 17 18 19 20 21 22 23 24 25 26 27 28 29 30 31 32 33 34 35 36 37 38 39
000
FTAK31 PAFA 261728
TAFAFA
TAF
PAFA 261728Z 2618/2724 05004KT P6SM SCT050 SCT090 SCT120
     FM261900 VRB02KT P6SM VCSH BKN070 BKN120
     FM270400 03004KT P6SM SCT070 BKN120=

USA.gov is the U.S. government's official web portal to all federal, state and local government web resources and services.